Погода в Самойловке

Украина / Херсонская область     47°07′47″N   34°26′47″E
темп.,
°C
ветер,
м/с
пор.,
м/с
влажн.,
%
обл.,
%
осадки,
мм/ч
давл.,
гПа
погр.,
м
24 января, пн
пн2423:00−4с81392100 0.6 1021580
02:00−5с81593100 0.9 1020596
05:00−5ссв71494100 0.8 1020719
08:00−5с71395100 2.7 1021612
11:00−4ссв71294100 1.8 1021580
14:00−3ссв61095100 3.3 1021577
17:00−3ссв51097100 1.3 1022604
20:00−4ссв5996100 2.1 1022393
25 января, вт
вт2523:00−6ссв599695 0.4 1023325
02:00−7с4796100 0.8 1024262
05:00−7с369697 1.2 1023273
08:00−8с359694 1.6 1024163
11:00−6ссв2290100 0.2 1024341
14:00−5ссз2287100 0.3 1023403
17:00−7сз119877 0.1 102211
20:00−9зюз119886 0.2 102213
26 января, ср
ср2623:00−9юз119877 0.1 102214
02:00−12з2210094 0.1 102010
05:00−12зюз119993 0.1 10209
08:00−12ююз119981 0.1 102010
11:00−6зюз018883 0.0 1020235
14:00−5сз118498 0.0 1020395
17:00−10ссв229520 0.0 102110
20:00−13с119841 0.0 10229
27 января, чт
чт2723:00−13ссз119969 0.0 102210
02:00−13сз2210089 0.0 102210
05:00−13ссз2210097 0.0 102210
08:00−13сз1110096 0.0 102213
11:00−6зсз2390100 0.0 1022287
14:00−5з3586100 0.0 1021491
17:00−9ююз229562 0.0 102019
20:00−10ююз369492 0.0 102073
28 января, пт
пт2823:00−7ююз499692 0.1 1019190
02:00−4ююз4109697 0.4 1018255
05:00−4ююз499887 0.1 1016180
08:00−1юз5129799 0.3 1016467
11:00+1юз714100100 0.7 1015701
14:00+2юз71498100 0.9 1013607
17:00+1юз71398100 0.7 1013447
20:00+1юз6139499 0.8 1014377